Weather Roundup
Issued by NWS

Home | Current Version | Previous Version | Graphics & Text | Print | Product List | Glossary Off
Versions: 1 2 3 4 5 6 7 8 9 10 11 12 13 14 15 16 17 18 19 20 21 22 23 24 25 26 27 28 29 30 31 32 33 34 35 36 37 38 39 40 41 42 43 44 45 46 47 48 49 50

000
NZUS93 KARX 060110
HRRWXR

CURRENT HOURLY OBSERVATIONS ACROSS
MUCH OF THE UPPER MISSISSIPPI VALLEY
NATIONAL WEATHER SERVICE LA CROSSE WI
800 PM CDT THU MAY 05 2016


...SOUTHEAST MINNESOTA...


CITY           SKY/WX    TMP DP  RH WIND       PRES   REMARKS
ROCHESTER      CLEAR     67  40  37 SW9       29.93F
ROCHESTER/MAYO FAIR      71  36  27 S6        29.93S
WINONA         CLEAR     70  41  35 E6        29.93R
AUSTIN         CLEAR     72  36  26 W5        29.94S
ALBERT LEA     CLEAR     72  36  26 SW3       29.93F
DODGE CENTER   CLEAR     68  37  32 W5        29.93F
PRESTON        PTCLDY    65  36  34 SW5       29.95F
OWATONNA       CLEAR     73  34  23 SW7       29.92S
FARIBAULT      CLEAR     73  39  29 SW5       29.91F
$$

...ELSEWHERE IN MINNESOTA...


CITY           SKY/WX    TMP DP  RH WIND       PRES   REMARKS
MINNEAPOLIS    PTCLDY    77  36  22 SW5       29.88F
INTNL FALLS    PTCLDY    80  48  32 W3        29.68S
DULUTH         PTCLDY    75  40  28 SW14      29.79F
RED WING       CLEAR     66  39  37 SE5       29.89S
REDWOOD FALLS  CLEAR     77  41  27 SW12      29.88F
MANKATO        CLEAR     73  39  29 SW8       29.91S
WORTHINGTON      N/A     73  43  33 SW10      29.95F
FAIRMONT       CLEAR     73  39  29 SW7       29.93F
$$

...SOUTHWEST WISCONSIN...


CITY           SKY/WX    TMP DP  RH WIND       PRES   REMARKS
LA CROSSE      PTCLDY    67  39  35 SE3       29.94S
PRAIRIE DU CHI CLEAR     65  34  31 CALM      29.95F
BOSCOBEL       CLEAR     64  36  35 CALM      29.96S
LONE ROCK      CLEAR     62  38  40 NW3       29.96S
PLATTEVILLE    CLEAR     62  34  35 W3        29.97F
FORT MC COY    PTCLDY    64  38  38 CALM      29.95F
CAMP DOUGLAS   MOCLDY    59  41  51 SW5       29.94S
MAUSTON-NEW LI CLEAR     64  36  35 CALM      29.94S
VIROQUA        FAIR      62  38  40 W5        29.96S
WIS DELLS      CLEAR     62  30  30 W3        29.95S
$$

...ELSEWHERE IN WISCONSIN...


CITY           SKY/WX    TMP DP  RH WIND       PRES   REMARKS
MILWAUKEE      MOCLDY    50  36  58 CALM      29.97F
MADISON        MOCLDY    59  35  40 CALM      29.95F
GREEN BAY      CLEAR     60  41  49 S8        29.92S
EAU CLAIRE     CLEAR     65  39  38 S6        29.91F
BLACK RVR FLS  FAIR      64  35  33 S5        29.91F
MEDFORD        MOCLDY    60  42  52 CALM      29.94R
WAUSAU         PTCLDY    63  38  39 W6        29.91F
WIS RAPIDS     CLEAR     63  33  32 W3        29.94F
MARSHFIELD     PTCLDY    63  39  41 W7        29.93F
RICE LAKE      CLEAR     65  39  38 S7        29.90F
$$

...NORTHEAST IOWA...


CITY           SKY/WX    TMP DP  RH WIND       PRES   REMARKS
WATERLOO       CLEAR     65  34  31 SE6       29.96F
DUBUQUE        CLEAR     62  34  35 CALM      29.98F
DECORAH        CLEAR     66  36  32 S3        29.95S
MASON CITY     CLEAR     67  41  38 W6        29.96F
CHARLES CITY   CLEAR     66  37  34 S7        29.96F
OELWEIN        CLEAR     64  37  36 SW6       29.97F
$$

...ELSEWHERE IN IOWA...


CITY           SKY/WX    TMP DP  RH WIND       PRES   REMARKS
DES MOINES     PTCLDY    68  36  30 S6        30.00S
IOWA CITY      CLEAR     64  34  32 W3        30.00S
FORT DODGE     CLEAR     66  43  42 SW5       29.98S
MARSHALLTOWN   CLEAR     64  39  39 SW7       29.98S
CEDAR RAPIDS   CLEAR     64  36  35 CALM      29.98S
$$

...NORTHERN ILLINOIS...


CITY           SKY/WX    TMP DP  RH WIND       PRES   REMARKS
CHICAGO-OHARE  PTCLDY    54  37  52 NE6       29.97R
CHICAGO-MIDWAY MOCLDY    54  36  50 E7        29.98R
MOLINE         CLEAR     64  35  34 CALM      29.98S
ROCKFORD       PTCLDY    59  38  45 NW5       29.99S
PEORIA         CLEAR     62  39  42 NW3       29.99S
$$

NOTE: "FAIR" INDICATES FEW OR NO CLOUDS BELOW 12,000 FEET WITH NO
SIGNIFICANT WEATHER AND/OR OBSTRUCTIONS TO VISIBILITY. WIND
SPEEDS ARE IN MILES-PER-HOUR.




USA.gov is the U.S. government's official web portal to all federal, state and local government web resources and services.